Torna al catalogo

STARLINK-2681

AttivoComunicazioniVLEO
NORAD 48465·PAYLOAD·🇺🇸 United States

Lanciato May 9, 2021 da Cape Canaveral Space Force Station

Loading…

Prossimi Passaggi (prossime 24 ore)

TLE

AggiornatoSource: CelesTrak SupGP

Epoca: Sep 14, 2026, 14:06 UTC

1 48465C 21040AP  26257.58798611  .01480500  00000+0  94423-3 0  2570
2 48465  53.1249 344.1737 0007911 350.2154 198.7127 16.16025681    12

Traccia STARLINK-2681 in tempo reale con AllMySat

Download on the App Store